STARLINK-35278, 65902

Orbit data source: Space-Track

STARLINK-35278, 65902 is a payload satellite owned by SpaceX/Seattle (US) in LEO that was launched on Tue, 07 Oct 2025 UTC via an FALCON 9 launch vehicle from the Air Force Eastern Test Range (AFETR). Payload-class satellites include a variety of spacecraft equipped with specific instruments for various scientific and technological missions. These include communications satellites like Starlink; space stations such as the ISS; scientific satellites like the Hubble; Earth observation satellites from companies like Planet Labs, Umbra, and HawkEye 360; GPS; miniature CubeSats for education and research; and military/defense satellites.

Loading next visibility...
Identifier
65902, 2025-224W
Orbit
LEO
Country
Flag of USUS
Related business
Manufacturer
SpaceX/Seattle
Mission
Operational Commercial Communications
Bus & Motor
STARLINK V2MO, Unknown motor
Mass
575 kg wet, ~530 kg dry
Launch date (UTC)
2025-10-07 (5 months ago)
Launch vehicle
FALCON 9
Launch site
Air Force Eastern Test Range (AFETR)
Object type
Payload
Rocket body
Debris
Shape & HBR
Box + 2 Pan, 17.7 m
Radar Cross Section
36.964 m²

Expand to show TLE details & history
Last TLE update: 15 hours ago

TLE from 15 hours ago
0 STARLINK-35278
1 65902U 25224W   26062.17752420  .00031975  00000-0  10865-2 0  9998
2 65902  53.1601  41.8439 0001184 125.0173 235.0939 15.30217905 23876
Epoch: 2026-03-03T04:15Z
TLE epoch observation values (Epoch: 2026-03-03T04:15:38.090Z)
Latitude
-0.00004°
Longitude
176.97484°
Altitude
476.526 km
Speed
7.628 km/s
True Right ascension
02h 47m 22s
True Declination
0° 00' 00"
Sunlit
Object was in daylight at epoch
Visualization orbit readout
Latitude
Unknown
Longitude
Unknown
Altitude
Unknown
Speed
Unknown
Apparent Right ascension
Unknown
Apparent Declination
Unknown
Sunlit
N/A
Visualization observer readout
Local Sidereal Time
23:11:46
Azimuth
Unknown
Elevation
Unknown
Doppler factor
Unknown
Orbital elements
Apogee altitude
476.229 km
Perigee altitude
474.607 km
Semi-major axis
6,853.555 km
Eccentricity
0.00012
Inclination
53.1601°
RAAN
41.8439°
Arg. of periapsis
125.0173°
True anomaly
235.08277°
Mean anomaly
235.0939°
Eccentric anomaly
235.08834°
Mean motion
3.82533 °/min
Orbital period
94.11 mins
BSTAR
0.0010865
Loading maneuver chart data...
Computing Atmospheric mass density...
Loading historical data...
Loading historical data...
Loading historical data...
Loading historical data...
Loading historical data...
Loading historical data...
Loading historical data...

Documentation

Showing up to 5 results
|